Home > Weather > Hefei > Past weeks

Flag for China Weather for the Past 2 Weeks in Hefei, Anhui, China

Now
81 °F

Sunny.


Feels Like: 83 °F
Forecast: 69 / 78 °F
Wind: 17 mph from South

Location: Hefei Airport

Current Time: May 1, 2016 at 3:17:11 PM

Latest Report: May 1, 2016 at 2:00 PM


Visibility: 10 mi

Pressure: 29.71 "Hg

Humidity: 62%

Dew Point: 66 °F

Location of HefeiLocation

Historic Weather in Hefei — Graph

°F

Hefei Temperature Yesterday

Maximum temperature yesterday: 86 °F (at 2:00 PM)
Minimum temperature yesterday: 59 °F (at 2:00 AM)
Average temperature yesterday: 73 °F

High & Low Weather Summary for the Past Weeks

 TemperatureHumidityPressure
High86 °F (Apr 30, 2:00 PM)100% (Apr 17, 12:00 AM)30.07 "Hg (Apr 17, 12:00 AM)
Low48 °F (Apr 18, 4:00 AM)31% (Apr 18, 2:00 PM)29.62 "Hg (Apr 16, 1:00 PM)
Average64 °F77%29.90 "Hg
* Reported Apr 16 1:00 PM — May 1 1:00 PM, Hefei, Weather by CustomWeather, © 2016

Note: Actual official high and low records may vary slightly from our data, if they occured in-between our weather recording intervals... More about our weather records

Advertising

Hefei Weather History for the Previous 24 Hours

Scroll right to see more
 ConditionsComfort  
Time TempWeatherWind HumidityBarometerVisibility
1:00 PM
Sun, May 1
82 °FSunny.17 mph55%29.71 "Hg10 mi
12:00 PM82 °FSunny.20 mph55%29.74 "Hg10 mi
11:00 AM81 °FSunny.17 mph58%29.74 "Hg10 mi
10:00 AM81 °FPassing clouds.15 mph54%29.77 "HgN/A
9:00 AM77 °FSunny.13 mph57%29.77 "Hg10 mi
8:00 AM73 °FSunny.13 mph61%29.77 "Hg10 mi
7:00 AM68 °FClear.6 mph78%29.77 "Hg5 mi
6:00 AM66 °FSunny.10 mph73%29.77 "Hg10 mi
5:00 AM68 °FClear.8 mph69%29.74 "Hg10 mi
4:00 AM64 °FClear.10 mph73%29.74 "Hg10 mi
3:00 AM66 °FClear.6 mph78%29.77 "Hg10 mi
2:00 AM66 °FClear.6 mph78%29.77 "Hg10 mi
1:00 AM68 °FClear.6 mph78%29.77 "Hg10 mi
12:00 AM70 °FClear.6 mph73%29.80 "Hg10 mi
11:00 PM
Sat, Apr 30
70 °FClear.8 mph73%29.77 "Hg10 mi
10:00 PM72 °FClear.8 mph69%29.77 "Hg10 mi
9:00 PM72 °FClear.8 mph73%29.77 "Hg10 mi
8:00 PM75 °FClear.8 mph65%29.74 "Hg10 mi
7:00 PM77 °FClear.8 mph61%29.74 "Hg10 mi
6:00 PM82 °FSunny.8 mph48%29.74 "Hg10 mi
5:00 PM84 °FSunny.13 mph43%29.74 "Hg10 mi
4:00 PM86 °FSunny.10 mph40%29.74 "Hg10 mi
3:00 PM86 °FPassing clouds.8 mph43%29.74 "HgN/A
Weather by CustomWeather, © 2016

See weather overviewHow to use our weather pages